| time (UTC) | temp F | wind direction | speed MPH | gust MPH | rain 1hr in | rain 24hr in | rain mn in | humidity % | barometer mb |
| 20260906161506 | 84 | 284 | 0.0 | 3.0 | 0.00 | 0.00 | 0.00 | 76 | 1016.3 |
| 20260906160013 | 84 | 182 | 0.0 | 2.0 | 0.00 | 0.00 | 0.00 | 76 | 1016.2 |
| 20260906154520 | 83 | 207 | 0.0 | 2.0 | 0.00 | 0.00 | 0.00 | 78 | 1016.1 |
| 20260906153004 | 82 | 49 | 0.0 | 1.0 | 0.00 | 0.00 | 0.00 | 80 | 1015.9 |
| 20260906151507 | 81 | 106 | 0.0 | 2.0 | 0.00 | 0.00 | 0.00 | 81 | 1015.8 |
| 20260906150011 | 82 | 133 | 0.0 | 3.0 | 0.00 | 0.00 | 0.00 | 80 | 1015.7 |
| 20260906144520 | 81 | 173 | 0.0 | 3.0 | 0.00 | 0.00 | 0.00 | 79 | 1015.6 |
| 20260906143025 | 81 | 116 | 1.0 | 2.0 | 0.00 | 0.00 | 0.00 | 80 | 1015.6 |
| 20260906141514 | 81 | 96 | 0.0 | 1.0 | 0.00 | 0.00 | 0.00 | 80 | 1015.5 |
| 20260906140010 | 81 | 123 | 0.0 | 0.0 | 0.00 | 0.00 | 0.00 | 80 | 1015.3 |
| 20260906134516 | 80 | 123 | 0.0 | 2.0 | 0.00 | 0.00 | 0.00 | 80 | 1015.2 |
| 20260906133020 | 80 | 107 | 0.0 | 2.0 | 0.00 | 0.00 | 0.00 | 81 | 1015.2 |
| 20260906131530 | 80 | 159 | 0.0 | 2.0 | 0.00 | 0.00 | 0.00 | 81 | 1014.9 |
| 20260906130007 | 80 | 192 | 0.0 | 2.0 | 0.00 | 0.00 | 0.00 | 83 | 1014.8 |
| 20260906124512 | 78 | 192 | 0.0 | 1.0 | 0.00 | 0.00 | 0.00 | 85 | 1014.4 |
| 20260906123031 | 77 | 192 | 0.0 | 0.0 | 0.00 | 0.00 | 0.00 | 86 | 1014.0 |
| 20260906121531 | 77 | 192 | 0.0 | 0.0 | 0.00 | 0.00 | 0.00 | 86 | 1013.9 |
| 20260906120031 | 77 | 192 | 0.0 | 0.0 | 0.00 | 0.00 | 0.00 | 85 | 1013.7 |
| 20260906114516 | 77 | 192 | 0.0 | 0.0 | 0.00 | 0.00 | 0.00 | 85 | 1013.5 |
| 20260906113023 | 77 | 192 | 0.0 | 0.0 | 0.00 | 0.00 | 0.00 | 84 | 1013.4 |
| 20260906111525 | 77 | 192 | 0.0 | 0.0 | 0.00 | 0.00 | 0.00 | 83 | 1013.2 |
| 20260906110027 | 78 | 192 | 0.0 | 0.0 | 0.00 | 0.00 | 0.00 | 82 | 1013.4 |
| 20260906104532 | 78 | 180 | 0.0 | 2.0 | 0.00 | 0.00 | 0.00 | 81 | 1013.3 |
| 20260906103038 | 79 | 245 | 0.0 | 2.0 | 0.00 | 0.00 | 0.00 | 80 | 1013.2 |
| 20260906101526 | 80 | 282 | 0.0 | 2.0 | 0.00 | 0.00 | 0.00 | 80 | 1012.9 |
| 20260906100029 | 80 | 173 | 0.0 | 2.0 | 0.00 | 0.00 | 0.00 | 79 | 1013.0 |
| 20260906094530 | 80 | 98 | 0.0 | 2.0 | 0.00 | 0.00 | 0.00 | 79 | 1013.1 |
| 20260906093031 | 80 | 244 | 0.0 | 2.0 | 0.00 | 0.00 | 0.00 | 78 | 1013.0 |
| 20260906091521 | 80 | 212 | 0.0 | 2.0 | 0.00 | 0.00 | 0.00 | 78 | 1012.9 |
| 20260906090028 | 80 | 238 | 0.0 | 4.0 | 0.00 | 0.00 | 0.00 | 78 | 1012.9 |
| 20260906084530 | 80 | 284 | 0.0 | 2.0 | 0.00 | 0.00 | 0.00 | 78 | 1013.0 |
| 20260906083012 | 81 | 319 | 0.0 | 3.0 | 0.00 | 0.00 | 0.00 | 77 | 1013.0 |
| 20260906081503 | 81 | 268 | 0.0 | 2.0 | 0.00 | 0.00 | 0.00 | 76 | 1013.0 |
| 20260906080002 | 82 | 284 | 0.0 | 3.0 | 0.00 | 0.00 | 0.00 | 75 | 1013.2 |
| 20260906074504 | 82 | 352 | 0.0 | 2.0 | 0.00 | 0.00 | 0.00 | 74 | 1013.3 |
| 20260906073008 | 82 | 235 | 0.0 | 2.0 | 0.00 | 0.00 | 0.00 | 73 | 1013.5 |
| 20260906071514 | 83 | 98 | 1.0 | 3.0 | 0.00 | 0.00 | 0.00 | 73 | 1013.7 |
| 20260906070003 | 83 | 225 | 1.0 | 4.0 | 0.00 | 0.00 | 0.00 | 72 | 1013.7 |
| 20260906064504 | 83 | 81 | 0.0 | 2.0 | 0.00 | 0.00 | 0.00 | 73 | 1013.8 |
| 20260906063006 | 83 | 202 | 0.0 | 6.0 | 0.00 | 0.00 | 0.00 | 73 | 1014.1 |
| 20260906061521 | 83 | 122 | 0.0 | 2.0 | 0.00 | 0.00 | 0.00 | 73 | 1014.1 |
| 20260906060021 | 83 | 140 | 0.0 | 4.0 | 0.00 | 0.00 | 0.00 | 72 | 1014.3 |
| 20260906054514 | 83 | 276 | 0.0 | 3.0 | 0.00 | 0.00 | 0.00 | 72 | 1014.1 |
| 20260906053006 | 83 | 131 | 0.0 | 3.0 | 0.00 | 0.00 | 0.00 | 72 | 1014.0 |
| 20260906051510 | 83 | 163 | 0.0 | 2.0 | 0.00 | 0.00 | 0.00 | 72 | 1014.1 |
| 20260906050021 | 83 | 171 | 0.0 | 2.0 | 0.00 | 0.00 | 0.00 | 72 | 1014.3 |
| 20260906044523 | 83 | 183 | 0.0 | 2.0 | 0.00 | 0.00 | 0.00 | 71 | 1014.3 |
| 20260906043018 | 83 | 128 | 0.0 | 2.0 | 0.00 | 0.00 | 0.00 | 71 | 1014.4 |
| 20260906041509 | 83 | 153 | 0.0 | 3.0 | 0.00 | 0.00 | 0.00 | 69 | 1014.1 |
| 20260906040019 | 84 | 198 | 1.0 | 7.0 | 0.00 | 0.00 | 0.00 | 68 | 1014.1 |
| 20260906034520 | 84 | 120 | 0.0 | 6.0 | 0.00 | 0.00 | 0.00 | 67 | 1014.2 |
| 20260906033027 | 85 | 155 | 1.0 | 6.0 | 0.00 | 0.00 | 0.00 | 65 | 1014.1 |
| 20260906031508 | 85 | 134 | 1.0 | 4.0 | 0.00 | 0.00 | 0.00 | 64 | 1013.8 |
| 20260906030013 | 86 | 183 | 0.0 | 6.0 | 0.00 | 0.00 | 0.00 | 63 | 1013.6 |
| 20260906024533 | 87 | 148 | 1.0 | 6.0 | 0.00 | 0.00 | 0.00 | 61 | 1013.4 |
| 20260906023025 | 87 | 150 | 0.0 | 5.0 | 0.00 | 0.00 | 0.00 | 60 | 1012.9 |
| 20260906021538 | 88 | 43 | 1.0 | 6.0 | 0.00 | 0.00 | 0.00 | 58 | 1012.4 |
| 20260906020013 | 88 | 40 | 1.0 | 6.0 | 0.00 | 0.00 | 0.00 | 57 | 1012.0 |
| 20260906014541 | 89 | 136 | 1.0 | 5.0 | 0.00 | 0.00 | 0.00 | 57 | 1011.9 |
| 20260906013033 | 89 | 113 | 1.0 | 8.0 | 0.00 | 0.00 | 0.00 | 55 | 1011.8 |
| 20260906011530 | 90 | 72 | 1.0 | 5.0 | 0.00 | 0.00 | 0.00 | 54 | 1011.8 |
| 20260906010030 | 91 | 91 | 2.0 | 9.0 | 0.00 | 0.00 | 0.00 | 53 | 1011.6 |
| 20260906004504 | 91 | 105 | 0.0 | 6.0 | 0.00 | 0.00 | 0.00 | 52 | 1011.6 |
| 20260906003008 | 92 | 134 | 1.0 | 6.0 | 0.00 | 0.00 | 0.00 | 51 | 1011.5 |
| 20260906001506 | 93 | 196 | 0.0 | 3.0 | 0.00 | 0.00 | 0.00 | 48 | 1011.4 |
| 20260906000004 | 94 | 101 | 1.0 | 6.0 | 0.00 | 0.00 | 0.00 | 47 | 1011.4 |
| 20260905234503 | 94 | 138 | 0.0 | 4.0 | 0.00 | 0.00 | 0.00 | 44 | 1011.2 |
| 20260905233003 | 95 | 132 | 0.0 | 2.0 | 0.00 | 0.00 | 0.00 | 43 | 1011.2 |
| 20260905231504 | 96 | 146 | 0.0 | 2.0 | 0.00 | 0.00 | 0.00 | 41 | 1011.2 |
| 20260905230005 | 97 | 68 | 0.0 | 2.0 | 0.00 | 0.00 | 0.00 | 40 | 1011.2 |
| 20260905224510 | 97 | 60 | 0.0 | 2.0 | 0.00 | 0.00 | 0.00 | 39 | 1011.2 |
| 20260905223004 | 96 | 66 | 0.0 | 2.0 | 0.00 | 0.00 | 0.00 | 41 | 1011.2 |
| 20260905221503 | 93 | 63 | 0.0 | 2.0 | 0.00 | 0.00 | 0.00 | 44 | 1011.4 |
| 20260905220003 | 95 | 315 | 0.0 | 2.0 | 0.00 | 0.00 | 0.00 | 41 | 1011.5 |
| 20260905214505 | 100 | 111 | 1.0 | 3.0 | 0.00 | 0.00 | 0.00 | 37 | 1011.5 |
| 20260905213007 | 100 | 102 | 1.0 | 2.0 | 0.00 | 0.00 | 0.00 | 37 | 1011.5 |
| 20260905211504 | 100 | 246 | 2.0 | 3.0 | 0.00 | 0.00 | 0.00 | 38 | 1011.7 |
| 20260905210007 | 100 | 317 | 0.0 | 4.0 | 0.00 | 0.00 | 0.00 | 37 | 1011.9 |
| 20260905204503 | 100 | 155 | 0.0 | 5.0 | 0.00 | 0.00 | 0.00 | 36 | 1012.2 |
| 20260905203008 | 99 | 46 | 1.0 | 4.0 | 0.00 | 0.00 | 0.00 | 38 | 1012.5 |
| 20260905201508 | 99 | 236 | 2.0 | 6.0 | 0.00 | 0.00 | 0.00 | 37 | 1012.6 |
| 20260905200008 | 98 | 103 | 0.0 | 3.0 | 0.00 | 0.00 | 0.00 | 38 | 1012.9 |
| 20260905194509 | 97 | 134 | 1.0 | 6.0 | 0.00 | 0.00 | 0.00 | 40 | 1013.1 |
| 20260905193007 | 99 | 230 | 1.0 | 3.0 | 0.00 | 0.00 | 0.00 | 38 | 1013.4 |
| 20260905191509 | 98 | 109 | 1.0 | 5.0 | 0.00 | 0.00 | 0.00 | 38 | 1013.6 |
| 20260905190009 | 98 | 144 | 0.0 | 6.0 | 0.00 | 0.00 | 0.00 | 40 | 1013.9 |
| 20260905184519 | 97 | 227 | 0.0 | 8.0 | 0.00 | 0.00 | 0.00 | 40 | 1014.3 |
| 20260905183010 | 98 | 222 | 0.0 | 7.0 | 0.00 | 0.00 | 0.00 | 41 | 1014.4 |
| 20260905181509 | 97 | 149 | 1.0 | 5.0 | 0.00 | 0.00 | 0.00 | 45 | 1014.7 |
| 20260905180016 | 97 | 80 | 1.0 | 3.0 | 0.00 | 0.00 | 0.00 | 46 | 1015.0 |
| 20260905174511 | 96 | 200 | 1.0 | 4.0 | 0.00 | 0.00 | 0.00 | 46 | 1015.3 |
| 20260905173011 | 95 | 156 | 0.0 | 6.0 | 0.00 | 0.00 | 0.00 | 48 | 1015.5 |
| 20260905171515 | 93 | 86 | 0.0 | 4.0 | 0.00 | 0.00 | 0.00 | 51 | 1015.6 |
| 20260905170012 | 89 | 236 | 1.0 | 5.0 | 0.00 | 0.00 | 0.00 | 61 | 1015.8 |
| 20260905164516 | 91 | 123 | 1.0 | 8.0 | 0.00 | 0.00 | 0.00 | 57 | 1015.9 |
| 20260905163018 | 90 | 72 | 1.0 | 8.0 | 0.00 | 0.00 | 0.00 | 58 | 1015.9 |